1504785600.01,3134,16.13,73496.0,8.67,-15.89,-17.11,0,*42
1504785601.26,3135,16.13,73492.8,8.63,-15.95,-17.03,0,*49
1504785602.5,3136,16.13,73496.3,8.57,-15.57,-16.51,0,*45
1504785603.75,3137,16.13,73492.8,8.55,-14.83,-15.53,0,*4F
1504785604.99,3138,16.13,73498.3,8.53,-14.11,-14.79,0,*44
1504785606.21,3139,16.13,73494.3,8.53,-14.65,-15.21,0,*4A
1504785607.43,3140,16.13,73494.3,8.53,-14.93,-15.25,0,*49
1504785608.68,3141,16.13,73494.8,8.55,-15.43,-15.63,0,*40
1504785609.91,3142,16.13,73494.3,8.53,-15.89,-15.75,0,*44
1504785611.11,3143,16.13,73488.8,8.53,-16.41,-15.99,0,*40
1504785612.38,3144,16.13,73490.0,8.51,-17.59,-17.11,0,*4F
1504785613.6,3145,16.13,73494.3,8.51,-16.83,-15.95,0,*46
1504785614.83,3146,16.13,73492.0,8.49,-17.21,-16.55,0,*4A
1504785616.05,3147,16.13,73488.8,8.49,-18.25,-17.79,0,*4F
1504785617.29,3148,16.13,73490.8,8.47,-18.11,-18.01,0,*49
1504785618.55,3149,16.13,73492.3,8.47,-17.69,-18.31,0,*4B
1504785619.79,3150,16.13,73492.5,8.41,-18.21,-19.31,0,*47
1504785621.04,3151,16.13,73490.8,8.41,-18.41,-20.35,0,*4E
1504785622.23,3152,16.13,73490.3,8.35,-19.03,-21.77,0,*4E
1504785623.45,3153,16.13,73490.0,8.33,-19.95,-23.59,0,*48
1504785624.64,3154,16.13,73490.0,8.31,-21.09,-25.13,0,*4B
1504785625.88,3155,16.13,73490.3,8.29,-22.41,-26.97,0,*43
1504785627.12,3156,16.13,73490.3,8.25,-23.29,-27.51,0,*48
1504785628.34,3157,16.13,73490.3,8.21,-24.57,-27.89,0,*46
1504785629.57,3158,16.13,73490.5,8.19,-24.47,-27.61,0,*45
1504785630.85,3159,16.13,73484.8,8.17,-24.83,-27.99,0,*45
1504785632.06,3160,16.13,73484.0,8.09,-26.23,-29.39,0,*4C
1504785633.26,3161,16.13,73478.3,8.09,-24.51,-27.77,0,*4E
1504785634.51,3162,16.13,73480.5,8.07,-27.23,-30.67,0,*42
1504785635.73,3163,16.13,73484.5,8.05,-28.53,-31.95,0,*45
1504785636.98,3164,16.13,73484.5,8.03,-28.53,-31.51,0,*4C
1504785638.2,3165,16.13,73486.8,8.01,-30.45,-32.75,0,*44
1504785639.43,3166,16.13,73488.5,7.97,-34.25,-35.53,0,*46
1504785640.65,3167,16.13,73488.3,7.93,-33.21,-33.77,0,*40
1504785641.85,3168,16.13,73488.8,7.89,-32.01,-31.67,0,*44
1504785643.07,3169,16.13,73488.0,7.89,-32.57,-31.91,0,*4F
1504785644.3,3170,16.13,73486.0,7.85,-32.85,-32.23,0,*4E
1504785645.54,3171,16.13,73484.0,7.83,-33.95,-33.49,0,*44
1504785646.76,3172,16.13,73484.5,7.79,-32.39,-31.91,0,*42
1504785647.97,3173,16.13,73486.0,7.79,-32.19,-32.01,0,*4B
1504785649.19,3174,16.13,73484.3,7.77,-30.33,-30.27,0,*4E
1504785650.4,3175,16.13,73484.3,7.79,-29.45,-30.33,0,*4D
1504785651.67,3176,16.13,73484.0,7.77,-28.59,-29.35,0,*42
1504785652.89,3177,16.13,73486.3,7.79,-27.71,-28.25,0,*48
1504785654.14,3178,16.13,73486.5,7.79,-26.81,-27.35,0,*47
1504785655.36,3179,16.13,73484.3,7.83,-27.67,-28.37,0,*47
1504785656.57,3180,16.13,73484.5,7.85,-29.45,-30.23,0,*45
1504785657.79,3181,16.13,73490.5,7.85,-28.63,-29.67,0,*49
1504785659.04,3182,16.13,73490.0,7.85,-30.01,-31.57,0,*4D
1504785660.25,3183,16.13,73488.8,7.85,-29.67,-30.83,0,*4C
1504785661.45,3184,16.13,73492.3,7.85,-27.55,-28.31,0,*44
1504785662.68,3185,16.13,73490.3,7.89,-27.89,-28.25,0,*4D
1504785663.91,3186,16.13,73490.5,7.89,-27.61,-27.89,0,*41
1504785665.15,3187,16.13,73490.0,7.97,-28.79,-28.79,0,*49
1504785666.4,3188,16.13,73486.8,7.99,-29.67,-29.35,0,*4F
1504785667.65,3189,16.13,73486.8,8.01,-28.59,-28.09,0,*42
1504785668.93,3190,16.13,73486.3,8.03,-28.63,-27.99,0,*47
1504785670.18,3191,16.13,73486.5,8.05,-28.21,-27.35,0,*40
1504785671.4,3192,16.13,73486.0,8.09,-29.45,-28.59,0,*49
1504785672.63,3193,16.13,73484.3,8.09,-30.83,-30.01,0,*4E
1504785673.9,3194,16.13,73486.5,8.07,-31.39,-30.17,0,*40
1504785675.14,3195,16.13,73484.3,8.09,-34.31,-33.49,0,*4A
1504785676.41,3196,16.13,73482.8,8.07,-33.77,-32.29,0,*45
1504785677.62,3197,16.13,73480.5,8.05,-33.21,-31.51,0,*49
1504785678.88,3198,16.13,73484.0,8.03,-32.51,-30.61,0,*44
1504785680.15,3199,16.13,73482.8,8.03,-31.51,-29.51,0,*4D
1504785681.4,3200,16.13,73486.3,8.03,-30.39,-28.31,0,*46
1504785682.58,3201,16.13,73486.0,8.05,-30.23,-27.71,0,*41
1504785683.81,3202,16.13,73484.3,8.07,-30.39,-27.77,0,*4D
1504785685.05,3203,16.13,73486.8,8.07,-30.01,-27.07,0,*40
1504785686.28,3204,16.13,73484.0,8.09,-29.29,-26.03,0,*4E
1504785687.5,3205,16.13,73484.3,8.11,-29.23,-25.61,0,*4B
1504785688.71,3206,16.13,73486.0,8.15,-28.69,-24.67,0,*44
1504785689.93,3207,16.13,73486.5,8.19,-27.93,-23.65,0,*46
1504785691.15,3208,16.13,73484.0,8.19,-29.17,-24.51,0,*4B
1504785692.35,3209,16.13,73486.0,8.23,-29.45,-24.57,0,*42
1504785693.56,3210,16.13,73488.5,8.23,-30.51,-25.09,0,*4D
1504785694.76,3211,16.13,73484.3,8.23,-29.57,-23.79,0,*43
1504785696.02,3212,16.13,73484.8,8.25,-28.47,-22.31,0,*4B
1504785697.21,3213,16.13,73484.5,8.27,-27.51,-21.09,0,*48
1504785698.43,3214,16.13,73486.0,8.33,-26.87,-19.95,0,*4E
1504785699.64,3215,16.13,73484.5,8.35,-26.55,-19.47,0,*49
1504785700.83,3216,16.13,73484.5,8.39,-27.51,-19.91,0,*48
1504785702.05,3217,16.13,73484.8,8.39,-28.85,-20.79,0,*43
1504785703.29,3218,16.13,73486.5,8.41,-28.97,-20.35,0,*48
1504785704.51,3219,16.13,73486.5,8.41,-28.37,-19.47,0,*4C
1504785705.76,3220,16.13,73484.3,8.45,-27.39,-18.01,0,*40
1504785707.01,3221,16.13,73486.0,8.47,-26.39,-16.65,0,*4E
1504785708.24,3222,16.13,73486.3,8.49,-26.49,-16.17,0,*41
1504785709.46,3223,16.13,73480.8,8.49,-28.53,-17.79,0,*4C
1504785710.7,3224,16.13,73486.8,8.49,-28.53,-17.07,0,*42
1504785711.9,3225,16.13,73480.0,8.49,-27.67,-15.95,0,*42
1504785713.12,3226,16.13,73478.5,8.51,-26.39,-14.23,0,*4E
1504785714.33,3227,16.13,73482.0,8.53,-27.71,-15.25,0,*47
1504785715.56,3228,16.13,73480.3,8.53,-29.07,-15.81,0,*49
1504785716.8,3229,16.13,73476.0,8.53,-28.47,-14.93,0,*4F
1504785718.0,3230,16.13,73478.3,8.49,-27.03,-13.11,0,*4E
1504785719.22,3231,16.13,73480.5,8.49,-27.29,-12.83,0,*4D
1504785720.42,3232,16.13,73478.8,8.49,-27.13,-12.39,0,*46
1504785721.67,3233,16.13,73476.5,8.49,-26.33,-11.55,0,*4D
1504785722.9,3234,16.13,73470.3,8.47,-26.07,-10.93,0,*48
1504785724.15,3235,16.13,73472.3,8.45,-25.97,-10.75,0,*49
1504785725.37,3236,16.13,73474.0,8.39,-25.35,-10.41,0,*4E
1504785726.57,3237,16.13,73468.3,8.39,-23.69,-8.93,0,*76
1504785727.76,3238,16.13,73470.3,8.35,-23.09,-8.55,0,*79
1504785728.99,3239,16.13,73468.8,8.33,-22.31,-8.33,0,*74
1504785730.23,3240,16.13,73470.5,8.33,-21.27,-7.83,0,*7A
1504785731.44,3241,16.13,73468.8,8.31,-19.99,-7.01,0,*7D
1504785732.68,3242,16.13,73468.8,8.29,-18.65,-6.63,0,*70
1504785733.9,3243,16.13,73468.3,8.29,-17.35,-6.47,0,*7D
1504785735.11,3244,16.13,73462.8,8.25,-16.79,-6.69,0,*73
1504785736.34,3245,16.13,73464.0,8.23,-17.07,-7.01,0,*73
1504785737.58,3246,16.13,73464.3,8.23,-15.81,-5.85,0,*72
1504785738.8,3247,16.13,73472.3,8.19,-16.13,-6.47,0,*7F
1504785740.04,3248,16.13,73468.3,8.17,-15.39,-6.09,0,*7F
1504785741.22,3249,16.13,73468.3,8.15,-15.71,-6.43,0,*7E
1504785742.48,3250,16.13,73472.0,8.07,-15.85,-6.93,0,*73
1504785743.74,3251,16.13,73468.5,8.05,-13.97,-5.23,0,*7D
1504785744.98,3252,16.13,73468.5,8.03,-14.23,-5.77,0,*71
1504785746.25,3253,16.13,73470.0,8.03,-12.71,-4.69,0,*7F
1504785747.52,3254,16.13,73472.0,7.99,-12.75,-5.07,0,*79
1504785748.74,3255,16.13,73474.0,7.97,-12.03,-4.89,0,*70
1504785749.96,3256,16.13,73472.5,7.95,-11.15,-4.29,0,*7F
1504785751.17,3257,16.13,73468.5,7.95,-10.85,-4.33,0,*7D
1504785752.41,3258,16.13,73470.8,7.95,-9.67,-3.59,0,*4D
1504785753.62,3259,16.13,73470.5,7.89,-9.15,-3.31,0,*4A
1504785754.81,3260,16.13,73472.3,7.89,-8.71,-3.19,0,*49
1504785756.0,3261,16.13,73472.5,7.89,-9.27,-3.95,0,*4E
1504785757.22,3262,16.13,73472.5,7.89,-9.15,-3.95,0,*4C
1504785758.43,3263,16.13,73468.8,7.85,-8.37,-3.51,0,*48
1504785759.67,3264,16.13,73474.0,7.85,-8.07,-3.59,0,*44
1504785760.89,3265,16.13,73474.8,7.81,-8.03,-3.67,0,*48
1504785762.1,3266,16.13,73472.0,7.81,-7.91,-3.83,0,*45
1504785763.32,3267,16.13,73474.8,7.77,-7.19,-3.39,0,*4C
1504785764.52,3268,16.13,73474.5,7.77,-6.77,-3.15,0,*44
1504785765.76,3269,16.13,73474.5,7.77,-6.23,-2.99,0,*41
1504785766.97,3270,16.13,73474.8,7.75,-6.51,-3.59,0,*43
1504785768.2,3271,16.13,73474.8,7.73,-5.89,-3.03,0,*4D
1504785769.4,3272,16.13,73472.0,7.67,-5.81,-3.31,0,*42
1504785770.63,3273,16.13,73476.5,7.71,-5.77,-3.43,0,*48
1504785771.81,3274,16.13,73472.3,7.67,-5.47,-3.31,0,*4E
1504785773.04,3275,16.13,73474.3,7.65,-5.43,-3.59,0,*47
1504785774.22,3276,16.13,73474.8,7.63,-5.97,-4.25,0,*47
1504785775.43,3277,16.13,73476.8,7.61,-5.35,-3.87,0,*43
1504785776.61,3278,16.13,73476.3,7.59,-4.17,-2.99,0,*48
1504785777.82,3279,16.13,73476.5,7.59,-3.63,-2.43,0,*4A
1504785779.09,3280,16.13,73476.3,7.57,-3.43,-2.47,0,*44
1504785780.35,3281,16.13,73478.0,7.57,-3.43,-2.47,0,*45
1504785781.54,3282,16.13,73476.8,7.59,-2.99,-2.23,0,*4C
1504785782.72,3283,16.13,73476.3,7.59,-2.87,-2.23,0,*42
1504785783.96,3284,16.13,73476.0,7.57,-3.03,-2.47,0,*44
1504785785.18,3285,16.13,73474.5,7.55,-2.95,-2.47,0,*49
1504785786.39,3286,16.13,73476.5,7.57,-2.83,-2.35,0,*4A
1504785787.59,3287,16.13,73474.5,7.57,-3.19,-3.03,0,*4D
1504785788.85,3288,16.13,73478.3,7.57,-3.71,-3.59,0,*43
1504785790.08,3289,16.13,73478.0,7.57,-2.83,-2.71,0,*45
1504785791.28,3290,16.13,73478.3,7.55,-2.95,-2.95,0,*42
1504785792.54,3291,16.13,73476.3,7.53,-3.47,-3.51,0,*42
1504785793.75,3292,16.13,73476.8,7.53,-4.37,-4.49,0,*4F
1504785795.01,3293,16.13,73478.5,7.49,-4.69,-4.85,0,*4E
1504785796.25,3294,16.13,73478.5,7.49,-4.57,-4.73,0,*4D
1504785797.48,3295,16.13,73476.5,7.47,-4.57,-4.85,0,*4B
1504785798.7,3296,16.13,73480.0,7.41,-4.65,-5.07,0,*44
1504785799.93,3297,16.13,73478.5,7.39,-3.67,-4.05,0,*4C
1504785801.16,3298,16.13,73480.0,7.39,-3.03,-3.51,0,*47
1504785802.39,3299,16.13,73476.3,7.39,-2.99,-3.43,0,*47
1504785803.62,3300,16.13,73476.8,7.39,-2.47,-3.15,0,*46
1504785804.86,3301,16.13,73476.5,7.39,-2.03,-2.79,0,*4C
1504785806.09,3302,16.13,73482.3,7.41,-1.87,-2.75,0,*43
1504785807.29,3303,16.13,73480.3,7.41,-1.95,-3.11,0,*42
1504785808.49,3304,16.13,73480.8,7.41,-1.99,-3.23,0,*48
1504785809.7,3305,16.13,73478.8,7.43,-1.67,-2.99,0,*4A
1504785810.9,3306,16.13,73478.0,7.43,-1.55,-3.07,0,*4E
1504785812.14,3307,16.13,73482.3,7.43,-2.11,-3.87,0,*44
1504785813.39,3308,16.13,73480.3,7.47,-1.43,-3.43,0,*43
1504785814.62,3309,16.13,73478.0,7.47,-1.09,-3.27,0,*4E
1504785815.87,3310,16.13,73482.3,7.49,-0.97,-3.47,0,*78
1504785817.08,3311,16.13,73482.5,7.51,-1.01,-3.79,0,*43
1504785818.3,3312,16.13,73482.0,7.53,-1.55,-4.65,0,*49
1504785819.48,3313,16.13,73480.5,7.55,-2.35,-5.97,0,*47
1504785820.67,3314,16.13,73480.0,7.55,-2.99,-6.89,0,*4A
1504785821.88,3315,16.13,73478.0,7.55,-2.87,-7.01,0,*45
1504785823.07,3316,16.13,73480.3,7.55,-2.39,-7.11,0,*42
1504785824.28,3317,16.13,73480.0,7.55,-2.71,-7.83,0,*44
1504785825.47,3318,16.13,73480.3,7.55,-3.11,-8.75,0,*4A
1504785826.66,3319,16.13,73478.8,7.55,-4.37,-10.53,0,*75
1504785827.85,3320,16.13,73476.3,7.55,-4.53,-11.19,0,*72
1504785829.06,3321,16.13,73480.8,7.51,-4.85,-12.21,0,*74
1504785830.3,3322,16.13,73476.5,7.51,-5.07,-12.79,0,*71
1504785831.52,3323,16.13,73476.8,7.53,-4.61,-13.07,0,*7B
1504785832.7,3324,16.13,73478.8,7.51,-4.53,-13.51,0,*7C
1504785833.91,3325,16.13,73478.5,7.51,-4.89,-14.69,0,*76
1504785835.15,3326,16.13,73476.8,7.51,-5.69,-16.27,0,*72
1504785836.37,3327,16.13,73474.8,7.51,-5.85,-16.97,0,*7A
1504785837.64,3328,16.13,73476.3,7.53,-5.65,-17.25,0,*71
1504785838.88,3329,16.13,73476.0,7.51,-7.73,-20.15,0,*70
1504785840.11,3330,16.13,73474.5,7.51,-9.11,-21.93,0,*7D
1504785841.32,3331,16.13,73478.5,7.49,-10.09,-22.87,0,*42
1504785842.54,3332,16.13,73478.5,7.49,-10.93,-23.59,0,*40
1504785843.76,3333,16.13,73478.8,7.49,-12.03,-24.35,0,*47
1504785845.03,3334,16.13,73476.0,7.49,-11.85,-23.19,0,*44
1504785846.31,3335,16.13,73476.3,7.49,-12.75,-23.03,0,*42
1504785847.56,3336,16.13,73478.0,7.49,-13.61,-22.87,0,*48
1504785848.78,3337,16.13,73474.0,7.53,-15.67,-23.89,0,*4D
1504785850.04,3338,16.13,73476.5,7.53,-16.09,-22.97,0,*47
1504785851.27,3339,16.13,73472.8,7.53,-16.83,-22.53,0,*4C
1504785852.5,3340,16.13,73474.5,7.59,-16.09,-20.25,0,*49
1504785853.74,3341,16.13,73472.0,7.61,-15.53,-18.55,0,*43
1504785854.99,3342,16.13,73472.0,7.65,-16.13,-17.83,0,*47
1504785856.21,3343,16.13,73468.3,7.71,-14.79,-15.11,0,*44
1504785857.42,3344,16.13,73470.3,7.75,-14.61,-13.79,0,*46
1504785858.64,3345,16.19,73474.8,7.81,-14.93,-13.11,0,*4F
1504785859.86,3346,16.13,73472.5,7.89,-15.71,-12.61,0,*4F
1504785861.1,3347,16.13,73470.8,7.95,-15.71,-11.73,0,*43
1504785862.3,3348,16.13,73472.0,8.01,-17.35,-12.47,0,*48
1504785863.52,3349,16.13,73474.0,8.05,-17.69,-11.81,0,*4D
1504785864.76,3350,16.13,73472.8,8.05,-19.31,-12.57,0,*4E
1504785865.95,3351,16.13,73468.0,8.05,-20.39,-13.11,0,*4E
1504785867.21,3352,16.13,73472.5,8.03,-19.95,-12.71,0,*40
1504785868.43,3353,16.13,73472.0,8.05,-19.31,-12.25,0,*48
1504785869.69,3354,16.13,73474.3,8.03,-19.81,-12.57,0,*47
1504785870.97,3355,16.13,73474.8,8.03,-18.59,-11.93,0,*49
1504785872.22,3356,16.13,73474.5,8.03,-18.83,-12.71,0,*42
1504785873.44,3357,16.13,73472.0,8.01,-16.97,-11.59,0,*43
1504785874.71,3358,16.13,73472.3,7.99,-15.81,-11.29,0,*41
1504785875.98,3359,16.13,73476.5,7.99,-14.79,-11.07,0,*4A
1504785877.18,3360,16.13,73472.0,7.97,-13.65,-10.53,0,*44
1504785878.41,3361,16.13,73472.0,7.97,-13.11,-10.67,0,*41
1504785879.63,3362,16.13,73474.5,7.97,-12.61,-10.57,0,*47
1504785880.83,3363,16.13,73474.0,7.97,-10.93,-9.71,0,*75
1504785882.06,3364,16.13,73476.3,7.99,-10.09,-9.49,0,*74
1504785883.27,3365,16.13,73472.3,7.99,-9.19,-9.19,0,*49
1504785884.48,3366,16.13,73474.8,7.99,-8.55,-9.05,0,*4E
1504785885.69,3367,16.13,73476.0,8.01,-6.59,-7.39,0,*42
1504785886.9,3368,16.13,73476.8,8.05,-6.97,-8.45,0,*4F
1504785888.1,3369,16.13,73476.5,8.05,-7.31,-8.97,0,*4C
1504785889.31,3370,16.19,73482.0,8.09,-5.65,-7.83,0,*41
1504785890.55,3371,16.13,73482.3,8.09,-5.65,-7.95,0,*47
1504785891.74,3372,16.13,73480.5,8.15,-3.79,-6.31,0,*4D
1504785892.96,3373,16.13,73478.5,8.19,-3.75,-6.63,0,*4B
1504785894.16,3374,16.13,73480.0,8.23,-2.87,-5.81,0,*46
1504785895.34,3375,16.13,73478.8,8.27,-2.87,-6.13,0,*4B
1504785896.57,3376,16.13,73480.3,8.29,-2.75,-6.09,0,*40
1504785897.78,3377,16.13,73480.0,8.35,-1.91,-5.39,0,*45
1504785898.98,3378,16.13,73482.3,8.41,-0.69,-4.33,0,*74
1504785900.2,3379,16.13,73478.3,8.49,-1.17,-4.85,0,*48
1504785901.41,3380,16.13,73482.5,8.57,-1.21,-4.89,0,*48
1504785902.68,3381,16.13,73482.5,8.59,-1.43,-5.11,0,*43
1504785903.93,3382,16.13,73486.8,8.65,-2.11,-5.85,0,*46
1504785905.12,3383,16.13,73482.8,8.69,-2.43,-6.31,0,*40
1504785906.33,3384,16.13,73482.5,8.73,-2.47,-6.35,0,*4C
1504785907.51,3385,16.13,73482.0,8.73,-3.15,-7.19,0,*44
1504785908.75,3386,16.13,73482.8,8.77,-2.83,-6.97,0,*4A
1504785909.98,3387,16.13,73480.5,8.81,-2.71,-6.85,0,*4C
1504785911.22,3388,16.13,73482.5,8.81,-2.51,-6.51,0,*48
1504785912.42,3389,16.13,73484.0,8.87,-2.87,-7.01,0,*40
1504785913.63,3390,16.13,73482.3,8.91,-2.55,-6.73,0,*44
1504785914.8,3391,16.13,73484.5,8.95,-2.91,-7.19,0,*44
1504785916.04,3392,16.13,73486.0,8.95,-3.43,-7.61,0,*46
1504785917.3,3393,16.13,73484.8,8.97,-3.59,-7.77,0,*49
1504785918.51,3394,16.13,73482.3,9.03,-3.59,-7.87,0,*4D
1504785919.7,3395,16.13,73486.0,9.03,-3.91,-8.29,0,*43
1504785920.91,3396,16.13,73486.0,9.09,-4.65,-9.41,0,*49
1504785922.12,3397,16.13,73486.5,9.09,-5.61,-10.85,0,*7D
1504785923.35,3398,16.13,73484.0,9.05,-6.43,-11.85,0,*7C
1504785924.58,3399,16.13,73484.8,9.05,-8.11,-13.93,0,*71
1504785925.79,3400,16.13,73484.8,9.05,-8.97,-14.69,0,*7A
1504785927.0,3401,16.13,73488.3,9.01,-8.71,-14.69,0,*77
1504785928.23,3402,16.13,73488.8,9.01,-9.01,-15.75,0,*7E
1504785929.44,3403,16.13,73488.3,9.01,-8.33,-15.99,0,*7D
1504785930.65,3404,16.13,73488.3,8.99,-7.53,-16.09,0,*79
1504785931.89,3405,16.13,73488.3,9.03,-6.93,-16.23,0,*7F
1504785933.1,3406,16.13,73488.3,9.01,-6.85,-16.93,0,*72
1504785934.32,3407,16.13,73486.3,9.09,-6.01,-16.69,0,*72
1504785935.57,3408,16.13,73484.5,9.11,-7.27,-18.59,0,*7C
1504785936.76,3409,16.13,73486.5,9.13,-7.53,-18.69,0,*7F
1504785937.95,3410,16.13,73484.5,9.17,-7.83,-18.65,0,*72
1504785939.18,3411,16.13,73486.5,9.21,-9.15,-20.73,0,*7B
1504785940.39,3412,16.13,73486.3,9.23,-9.97,-21.63,0,*70
1504785941.58,3413,16.13,73488.0,9.25,-10.85,-22.07,0,*4D
1504785942.77,3414,16.13,73486.3,9.33,-12.89,-23.79,0,*4B
1504785943.98,3415,16.13,73486.0,9.33,-14.61,-24.67,0,*42
1504785945.24,3416,16.13,73484.0,9.35,-14.01,-22.97,0,*48
1504785946.45,3417,16.19,73484.3,9.39,-14.29,-22.63,0,*44
1504785947.66,3418,16.13,73484.0,9.39,-15.67,-23.59,0,*48
1504785948.9,3419,16.13,73484.5,9.47,-16.31,-23.53,0,*4A
1504785950.14,3420,16.13,73484.0,9.47,-17.07,-23.85,0,*4F
1504785951.33,3421,16.13,73484.5,9.55,-17.87,-24.05,0,*4A
1504785952.55,3422,16.13,73482.3,9.55,-19.85,-26.07,0,*45
1504785953.77,3423,16.13,73480.3,9.57,-20.43,-25.91,0,*4A
1504785954.99,3424,16.13,73480.5,9.55,-21.23,-26.07,0,*44
1504785956.22,3425,16.13,73484.3,9.57,-20.43,-24.61,0,*42
1504785957.41,3426,16.13,73486.3,9.59,-21.17,-25.13,0,*4B
1504785958.63,3427,16.13,73486.3,9.61,-22.07,-25.61,0,*46
1504785959.85,3428,16.13,73486.5,9.61,-21.77,-24.93,0,*41
1504785961.08,3429,16.13,73484.0,9.63,-23.03,-25.65,0,*4B
1504785962.3,3430,16.13,73484.3,9.63,-24.47,-26.81,0,*4D
1504785963.55,3431,16.13,73484.3,9.63,-25.97,-27.83,0,*43
1504785964.73,3432,16.13,73480.5,9.63,-25.09,-26.45,0,*4C
1504785965.96,3433,16.13,73478.0,9.59,-26.33,-27.55,0,*4E
1504785967.15,3434,16.13,73484.8,9.59,-28.37,-29.07,0,*4A
1504785968.35,3435,16.19,73486.5,9.59,-29.57,-29.79,0,*45
1504785969.53,3436,16.13,73486.3,9.55,-29.23,-29.07,0,*40
1504785970.79,3437,16.13,73486.0,9.49,-29.35,-28.53,0,*4B
1504785972.06,3438,16.13,73486.0,9.49,-28.91,-27.61,0,*45
1504785973.3,3439,16.13,73480.0,9.45,-32.29,-29.95,0,*45
1504785974.55,3440,16.13,73486.5,9.41,-30.67,-28.25,0,*4D
1504785975.77,3441,16.13,73486.5,9.37,-30.77,-27.89,0,*45
1504785976.95,3442,16.13,73488.0,9.37,-30.11,-26.49,0,*4B
1504785978.18,3443,16.13,73486.5,9.35,-29.57,-25.49,0,*41
1504785979.4,3444,16.13,73486.0,9.35,-30.11,-25.35,0,*47
1504785980.65,3445,16.13,73486.0,9.27,-31.79,-26.33,0,*4F
1504785981.92,3446,16.13,73482.5,9.27,-32.85,-26.93,0,*46
1504785983.19,3447,16.13,73482.8,9.23,-33.27,-26.71,0,*46
1504785984.41,3448,16.13,73480.8,9.17,-31.85,-24.61,0,*47
1504785985.65,3449,16.13,73480.3,9.15,-32.45,-24.51,0,*48
1504785986.9,3450,16.13,73482.5,9.11,-31.79,-23.19,0,*43
1504785988.16,3451,16.13,73480.5,9.09,-31.73,-22.77,0,*48
1504785989.35,3452,16.13,73484.8,9.09,-30.83,-21.13,0,*44
1504785990.6,3453,16.19,73488.5,9.05,-31.11,-20.93,0,*4A
1504785991.84,3454,16.13,73482.3,9.01,-30.23,-19.61,0,*4E
1504785993.09,3455,16.13,73482.0,9.01,-29.01,-18.07,0,*46
1504785994.34,3456,16.13,73484.0,9.01,-29.17,-17.83,0,*41
1504785995.58,3457,16.13,73480.3,9.01,-30.39,-18.41,0,*45
1504785996.84,3458,16.19,73486.0,8.97,-27.45,-15.35,0,*47
1504785998.04,3459,16.13,73480.3,8.99,-26.61,-14.61,0,*4F
1504785999.25,3460,16.13,73480.8,8.99,-26.29,-14.33,0,*4E
1504786000.49,3461,16.13,73484.5,8.99,-26.29,-14.01,0,*4E
1504786001.68,3462,16.13,73484.0,8.99,-25.39,-12.93,0,*42
1504786002.9,3463,16.13,73486.3,8.97,-24.77,-12.43,0,*4B
1504786004.12,3464,16.13,73484.0,8.99,-25.09,-12.61,0,*4A
1504786005.3,3465,16.13,73488.5,8.99,-26.61,-13.93,0,*4A
1504786006.52,3466,16.13,73486.0,8.95,-27.55,-14.79,0,*40
1504786007.75,3467,16.13,73486.0,8.93,-28.37,-15.25,0,*44
1504786008.97,3468,16.13,73484.5,8.89,-27.77,-14.65,0,*4E
1504786010.21,3469,16.19,73486.5,8.81,-28.31,-15.01,0,*49
1504786011.46,3470,16.13,73488.0,8.77,-27.35,-14.15,0,*47
1504786012.67,3471,16.13,73484.0,8.73,-26.87,-13.61,0,*4E
1504786013.93,3472,16.13,73484.0,8.71,-27.19,-13.79,0,*40
1504786015.18,3473,16.13,73488.8,8.67,-26.03,-12.83,0,*48
1504786016.43,3474,16.19,73490.8,8.63,-24.77,-11.81,0,*4B
1504786017.65,3475,16.19,73492.0,8.57,-23.95,-11.19,0,*47
1504786018.88,3476,16.13,73490.3,8.53,-23.03,-10.35,0,*40
1504786020.1,3477,16.13,73488.0,8.53,-21.67,-9.27,0,*7A
1504786021.31,3478,16.19,73490.8,8.49,-21.73,-9.57,0,*7C
1504786022.53,3479,16.19,73492.8,8.45,-21.77,-9.83,0,*7C
1504786023.75,3480,16.19,73492.8,8.45,-19.65,-8.41,0,*7D
1504786024.97,3481,16.13,73490.8,8.39,-19.31,-8.37,0,*77
1504786026.21,3482,16.13,73488.5,8.33,-18.59,-8.21,0,*76
1504786027.41,3483,16.13,73488.0,8.31,-17.87,-8.03,0,*79
1504786028.64,3484,16.19,73494.0,8.27,-16.31,-7.01,0,*78
1504786029.87,3485,16.19,73490.3,8.27,-14.97,-6.27,0,*72
1504786031.11,3486,16.13,73490.8,8.23,-13.87,-5.69,0,*7A
1504786032.31,3487,16.13,73490.0,8.23,-12.43,-4.77,0,*7C
1504786033.53,3488,16.19,73492.8,8.23,-11.77,-4.61,0,*70
1504786034.74,3489,16.13,73490.5,8.23,-10.79,-4.13,0,*7B
1504786035.92,3490,16.13,73490.8,8.23,-10.15,-3.87,0,*73
1504786037.16,3491,16.13,73488.8,8.21,-9.11,-3.27,0,*46
1504786038.37,3492,16.19,73490.0,8.25,-8.45,-3.07,0,*43
1504786039.62,3493,16.13,73490.5,8.21,-7.77,-2.75,0,*4C
1504786040.86,3494,16.13,73488.5,8.21,-7.01,-2.23,0,*49
1504786042.08,3495,16.19,73492.3,8.23,-6.23,-1.87,0,*46
1504786043.27,3496,16.19,73490.3,8.23,-6.43,-2.35,0,*49
1504786044.5,3497,16.13,73486.8,8.23,-5.69,-1.99,0,*46
1504786045.71,3498,16.13,73486.3,8.23,-5.07,-1.71,0,*47
1504786046.89,3499,16.19,73488.8,8.23,-4.65,-1.63,0,*40
1504786048.09,3500,16.19,73488.8,8.23,-4.61,-1.95,0,*4C
1504786049.32,3501,16.13,73488.0,8.23,-5.15,-2.63,0,*45
1504786050.53,3502,16.13,73490.5,8.23,-4.37,-2.11,0,*42
1504786051.76,3503,16.19,73492.8,8.21,-4.01,-2.19,0,*4C
1504786052.96,3504,16.13,73488.0,8.21,-4.49,-2.83,0,*44
1504786054.2,3505,16.13,73490.8,8.21,-4.13,-2.71,0,*47
1504786055.38,3506,16.19,73498.8,8.19,-4.33,-3.15,0,*4E
1504786056.57,3507,16.19,73496.8,8.19,-4.33,-3.31,0,*49
1504786057.77,3508,16.19,73496.5,8.17,-4.99,-4.33,0,*4D
1504786059.01,3509,16.19,73496.5,8.11,-6.43,-5.85,0,*43
1504786060.21,3510,16.19,73498.0,8.09,-6.05,-5.77,0,*4D
1504786061.47,3511,16.19,73498.8,8.07,-5.11,-5.03,0,*47
1504786062.67,3512,16.13,73496.5,8.03,-6.39,-6.69,0,*46
1504786063.88,3513,16.19,73498.3,7.99,-6.39,-6.85,0,*49
1504786065.12,3514,16.13,73494.0,7.95,-5.51,-6.27,0,*47
1504786066.35,3515,16.19,73498.5,7.95,-5.65,-6.77,0,*44
1504786067.54,3516,16.19,73496.8,7.93,-6.89,-8.29,0,*45
1504786068.78,3517,16.19,73498.5,7.87,-6.59,-8.11,0,*47
1504786069.96,3518,16.13,73494.8,7.85,-6.89,-8.59,0,*4B
1504786071.2,3519,16.13,73496.3,7.81,-7.99,-9.45,0,*42
1504786072.45,3520,16.19,73496.0,7.77,-7.91,-8.81,0,*40
1504786073.66,3521,16.13,73494.0,7.77,-8.59,-9.31,0,*40
1504786074.9,3522,16.13,73492.0,7.77,-8.89,-9.53,0,*4A
1504786076.09,3523,16.19,73494.8,7.75,-9.01,-9.67,0,*4F
1504786077.28,3524,16.19,73492.8,7.75,-9.27,-9.71,0,*4B
1504786078.53,3525,16.19,73494.5,7.73,-9.45,-9.45,0,*4F
1504786079.71,3526,16.19,73500.0,7.67,-9.97,-9.79,0,*49
1504786080.92,3527,16.13,73496.0,7.67,-10.23,-9.61,0,*76
1504786082.13,3528,16.19,73492.8,7.67,-10.31,-9.15,0,*79
1504786083.4,3529,16.13,73492.3,7.65,-11.07,-9.53,0,*7C
1504786084.65,3530,16.13,73492.5,7.65,-12.35,-10.35,0,*4E
1504786085.89,3531,16.19,73496.3,7.63,-12.07,-9.41,0,*73
1504786087.1,3532,16.13,73492.5,7.63,-11.77,-8.93,0,*7A
1504786088.31,3533,16.13,73492.5,7.63,-11.55,-8.63,0,*74
1504786089.54,3534,16.19,73492.3,7.61,-11.73,-8.63,0,*75
1504786090.81,3535,16.13,73494.3,7.61,-10.71,-7.35,0,*7B
1504786092.02,3536,16.19,73496.3,7.61,-10.05,-6.51,0,*78
1504786093.24,3537,16.13,73492.0,7.63,-9.31,-5.61,0,*44
1504786094.47,3538,16.13,73492.0,7.65,-8.51,-4.61,0,*4B
1504786095.68,3539,16.19,73494.3,7.67,-7.31,-2.95,0,*4C
1504786096.91,3540,16.19,73494.8,7.75,-6.27,-1.87,0,*47
1504786098.18,3541,16.19,73494.5,7.77,-5.93,-1.39,0,*4D
1504786099.42,3542,16.19,73494.5,7.87,-7.01,-2.35,0,*47
1504786100.63,3543,16.19,73492.0,7.89,-7.27,-2.35,0,*4C
1504786101.87,3544,16.19,73490.5,7.93,-6.97,-2.03,0,*4F
1504786103.11,3545,16.19,73494.3,7.95,-5.97,-1.05,0,*4E
1504786104.32,3546,16.13,73490.0,8.01,-5.19,-0.49,0,*70
1504786105.51,3547,16.19,73492.0,8.03,-4.37,0.05,0,*6B
1504786106.72,3548,16.19,73492.3,8.07,-4.33,-0.11,0,*7C
1504786107.93,3549,16.13,73492.3,8.15,-5.23,-1.17,0,*49
1504786109.12,3550,16.19,73494.8,8.15,-4.85,-0.81,0,*72
1504786110.3,3551,16.19,73492.8,8.19,-4.45,-0.37,0,*7E
1504786111.54,3552,16.19,73492.5,8.21,-4.93,-0.89,0,*78
1504786112.72,3553,16.19,73492.3,8.23,-6.09,-2.19,0,*41
1504786113.93,3554,16.19,73492.3,8.23,-6.77,-2.75,0,*45